Location: L�Ave Maria
(50.7161°N, 1.5911°E)
Time: 23:48:26
(UTC+00:00)

Cosmos 2344 - Pass Details

Date: 10 July 2020
Orbit: 1249 x 2994 km, 63.3° (Epoch: 14 August)

Event Time Altitude Azimuth Distance (km) Brightness Sun altitude
Rises 23:33:54 0° 239° (WSW) 4,209 6.1 -17.0°
Reaches altitude 10° 23:36:39 10° 243° (WSW) 3,222 5.5 -17.0°
Maximum altitude 23:44:01 62° 324° (NW) 1,458 4.1 -17.1°
Drops below altitude 10° 23:52:34 10° 45° (NE) 3,710 6.6 -17.2°
Sets 23:55:58 0° 49° (NE) 4,896 7.2 -17.2°
